Skip Page Navigation
NASA JPL Caltech
NASA Logo - Jet Propulsion Laboratory + View the NASA Portal
+ Center for Near-Earth Object Studies
JPL Home Earth Solar System Stars & Galaxies Technology
JPL Solar System Dynamics
BODIES ORBITS EPHEMERIDES TOOLS PHYSICAL DATA DISCOVERY FAQ SITE MAP
IMPORTANT: The SSD Announcement email list is now available. Major changes are coming in the near future, including possible hostname and/or URL changes. To be notified of such changes, subscribe to this email list.

Please visit this page for more details.


JPL Small-Body Database Browser
Search: [ help ]  
160262 (2002 RO8)
Classification: Main-belt Asteroid          SPK-ID: 2160262
Ephemeris | Orbit Diagram | Orbital Elements | Mission Design | Physical Parameters | Discovery Circumstances ]

[ show orbit diagram ]
Orbital Elements at Epoch 2458600.5 (2019-Apr-27.0) TDB
Reference: JPL 19 (heliocentric ecliptic J2000)
 Element Value Uncertainty (1-sigma)   Units 
e .09087771065378439 4.8706e-08  
a 3.043919037379717 3.0124e-08 au
q 2.767294643847177 1.5354e-07 au
i 11.52959229311503 6.0642e-06 deg
node 173.772443553173 2.2915e-05 deg
peri 219.4022152096694 3.7096e-05 deg
M 4.264537424245294 3.0076e-05 deg
tp 2458577.521720839410
(2019-Apr-04.02172084)
0.000162 TDB
period 1939.760324480271
5.31
2.8795e-05
7.884e-08
d
yr
n .1855899388479638 2.755e-09 deg/d
Q 3.320543430912257 3.2861e-08 au
  Orbit Determination Parameters
   # obs. used (total)      508  
   data-arc span      5864 days (16.05 yr)  
   first obs. used      2002-08-28  
   last obs. used      2018-09-17  
   planetary ephem.      DE431  
   SB-pert. ephem.      SB431-N16  
   condition code      0  
   norm. resid. RMS      .58441  
   source      ORB  
   producer      Otto Matic  
   solution date      2018-Oct-04 06:30:04  

Additional Information
 Earth MOID = 1.7812 au 
 Jupiter MOID = 2.14381 au 
 T_jup = 3.202 
[ show covariance matrix ]

Ephemeris | Orbit Diagram | Orbital Elements | Mission Design | Physical Parameters | Discovery Circumstances ]

Physical Parameter Table
Parameter Symbol Value Units Sigma Reference Notes
absolute magnitude H 14.9   n/a MPO412927  
diameter diameter 3.856 km 0.956 urn:nasa:pds:neowise_diameters_albedos::2.0[mainbelt] (http://adsabs.harvard.edu/abs/2011ApJ...741...68M)  
rotation period rot_per 3.228 h n/a LCDB (Rev. 2019-January); Warner et al., 2009 Result based on less than full coverage, so that the period may be wrong by 30 percent or so.
Published Reference List:
[Waszczak, A.; Chang, C.-K.; Ofeck, E.O.; Laher, F.; et al. (2015) Astron. J. 150, A75.]
geometric albedo albedo 0.157   0.103 urn:nasa:pds:neowise_diameters_albedos::2.0[mainbelt] (http://adsabs.harvard.edu/abs/2011ApJ...741...68M)  

160262 (2002 RO8)          Discovered 2002-Sep-03 by NEAT at Haleakala
Reference: 20070730/Numbers.arcLast Updated: 2007-08-06
Ephemeris | Orbit Diagram | Orbital Elements | Mission Design | Physical Parameters | Discovery Circumstances ]
ABOUT SSD CREDITS/AWARDS PRIVACY/COPYRIGHT GLOSSARY LINKS
FirstGov
(server date/time)  
NASA Home Page
Site Manager:   Ryan S. Park
Webmaster  Alan B. Chamberlin